RYR159M EDDK-LEPA

Flight info

Callsign RYR159M
Flight time 1h 51m
Altitude 37000
Route NVO3B NVO Y868 NAVAK Z283 SOPOK DCT ROUSY DCT GTQ DCT POGOL DCT LASAT DCT MOROK DCT GILIR DCT GEVEA DCT INCUS DCT BALSI DCT RETNO DCT TUPOX DCT MTG DCT DIVKO DCT VATIR DCT PIVUS DCT BODEQ DCT VERSO L129 LUNIK
Aircraft A320/M-SDE3FGHIRWY/LB1

Departure

Time 2026-04-21 17:14
Airport Cologne Bonn Airport (EDDK)

Arrival

Time 2026-04-21 19:06
Airport Palma de Mallorca Airport (LEPA)
Time Latitude Longitude Altitude Speed Heading
2026-04-21 16:42 50.86955 7.13659 243 ft 0 kts 227°
2026-04-21 17:05 50.86965 7.13677 243 ft 2 kts 227°
2026-04-21 17:05 50.86977 7.13697 243 ft 2 kts 227°
2026-04-21 17:05 50.86989 7.13718 243 ft 2 kts 227°
2026-04-21 17:05 50.87000 7.13738 243 ft 2 kts 227°
2026-04-21 17:06 50.87013 7.13757 243 ft 3 kts 202°
2026-04-21 17:06 50.87031 7.13762 242 ft 3 kts 164°
2026-04-21 17:06 50.87041 7.13756 242 ft 0 kts 147°
2026-04-21 17:07 50.87015 7.13790 243 ft 11 kts 139°
2026-04-21 17:07 50.86938 7.13900 248 ft 14 kts 137°
2026-04-21 17:08 50.86884 7.13980 254 ft 7 kts 137°
2026-04-21 17:08 50.86854 7.14024 255 ft 6 kts 137°
2026-04-21 17:08 50.86812 7.14085 255 ft 13 kts 139°
2026-04-21 17:08 50.86713 7.14166 257 ft 16 kts 142°
2026-04-21 17:09 50.86541 7.14415 263 ft 22 kts 138°
2026-04-21 17:09 50.86436 7.14566 270 ft 19 kts 136°
2026-04-21 17:09 50.86349 7.14694 275 ft 15 kts 137°
2026-04-21 17:10 50.86280 7.14793 279 ft 11 kts 137°
2026-04-21 17:10 50.86234 7.14860 281 ft 7 kts 137°
2026-04-21 17:10 50.86210 7.14895 283 ft 5 kts 137°
2026-04-21 17:10 50.86157 7.14971 285 ft 17 kts 137°
2026-04-21 17:11 50.86055 7.15120 292 ft 20 kts 137°
2026-04-21 17:11 50.85953 7.15270 295 ft 20 kts 137°
2026-04-21 17:11 50.85852 7.15414 298 ft 19 kts 140°
2026-04-21 17:11 50.85754 7.15555 301 ft 19 kts 137°
2026-04-21 17:12 50.85659 7.15694 302 ft 18 kts 137°
2026-04-21 17:12 50.85568 7.15829 305 ft 18 kts 136°
2026-04-21 17:12 50.85490 7.15951 309 ft 11 kts 118°
2026-04-21 17:12 50.85518 7.16060 308 ft 12 kts 48°
2026-04-21 17:13 50.85578 7.16165 309 ft 14 kts 47°
2026-04-21 17:13 50.85662 7.16302 308 ft 15 kts 38°
2026-04-21 17:13 50.85733 7.16262 307 ft 0 kts 317°
2026-04-21 17:14 50.85849 7.16095 305 ft 59 kts 317°
2026-04-21 17:14 50.86325 7.15403 287 ft 124 kts 317°
2026-04-21 17:14 50.86818 7.14690 265 ft 159 kts 317°
2026-04-21 17:14 50.87945 7.13025 980 ft 165 kts 320°
2026-04-21 17:15 50.88800 7.11797 1791 ft 170 kts 321°
2026-04-21 17:15 50.89419 7.10919 2037 ft 184 kts 321°
2026-04-21 17:15 50.90386 7.09545 2551 ft 192 kts 320°
2026-04-21 17:15 50.91173 7.07785 3177 ft 200 kts 290°
2026-04-21 17:16 50.91245 7.05528 3616 ft 219 kts 261°
2026-04-21 17:16 50.90952 7.03032 3906 ft 242 kts 264°
2026-04-21 17:16 50.90757 7.00262 4365 ft 262 kts 266°
2026-04-21 17:16 50.90588 6.97354 5177 ft 268 kts 267°
2026-04-21 17:17 50.90418 6.94394 6064 ft 271 kts 266°
2026-04-21 17:17 50.90238 6.91408 6941 ft 274 kts 266°
2026-04-21 17:17 50.90044 6.88389 7759 ft 278 kts 266°
2026-04-21 17:17 50.89836 6.85318 8570 ft 282 kts 265°
2026-04-21 17:18 50.89617 6.82207 9384 ft 287 kts 265°
2026-04-21 17:18 50.89391 6.79082 10176 ft 291 kts 265°
2026-04-21 17:18 50.89157 6.75848 10698 ft 305 kts 265°
2026-04-21 17:18 50.88901 6.72334 10913 ft 329 kts 264°
2026-04-21 17:19 50.88635 6.68696 11310 ft 343 kts 265°
2026-04-21 17:19 50.88360 6.64916 11995 ft 348 kts 265°
2026-04-21 17:19 50.88082 6.61095 12734 ft 351 kts 264°
2026-04-21 17:19 50.87797 6.57235 13470 ft 355 kts 264°
2026-04-21 17:20 50.87507 6.53337 14173 ft 358 kts 264°
2026-04-21 17:20 50.87216 6.49405 14812 ft 361 kts 264°
2026-04-21 17:20 50.86920 6.45445 15448 ft 364 kts 264°
2026-04-21 17:20 50.86616 6.41448 16075 ft 367 kts 264°
2026-04-21 17:21 50.86305 6.37417 16716 ft 371 kts 264°
2026-04-21 17:21 50.85992 6.33354 17330 ft 374 kts 264°
2026-04-21 17:21 50.85677 6.29250 17943 ft 377 kts 264°
2026-04-21 17:21 50.85358 6.25110 18540 ft 381 kts 264°
2026-04-21 17:22 50.85037 6.20936 19060 ft 384 kts 264°
2026-04-21 17:22 50.84711 6.16722 19592 ft 387 kts 264°
2026-04-21 17:22 50.84381 6.12473 20124 ft 391 kts 264°
2026-04-21 17:22 50.84047 6.08194 20652 ft 394 kts 264°
2026-04-21 17:23 50.83710 6.03877 21182 ft 397 kts 264°
2026-04-21 17:23 50.83157 5.99583 21711 ft 402 kts 253°
2026-04-21 17:23 50.82076 5.95492 22221 ft 406 kts 242°
2026-04-21 17:23 50.80491 5.91787 22722 ft 409 kts 230°
2026-04-21 17:24 50.78467 5.88605 23221 ft 413 kts 219°
2026-04-21 17:24 50.76082 5.86056 23705 ft 416 kts 210°
2026-04-21 17:24 50.73553 5.83803 24116 ft 419 kts 210°
2026-04-21 17:24 50.70997 5.81585 24514 ft 421 kts 210°
2026-04-21 17:25 50.68414 5.79380 24915 ft 423 kts 210°
2026-04-21 17:25 50.65818 5.77183 25304 ft 424 kts 210°
2026-04-21 17:25 50.63207 5.74989 25687 ft 427 kts 208°
2026-04-21 17:25 50.60444 5.73222 26035 ft 431 kts 199°
2026-04-21 17:26 50.57506 5.72184 26384 ft 436 kts 189°
2026-04-21 17:26 50.54466 5.71934 26714 ft 441 kts 179°
2026-04-21 17:26 50.51437 5.72402 27032 ft 445 kts 175°
2026-04-21 17:26 50.48355 5.73003 27334 ft 448 kts 175°
2026-04-21 17:27 50.45248 5.73600 27638 ft 451 kts 175°
2026-04-21 17:27 50.42122 5.74194 27911 ft 454 kts 175°
2026-04-21 17:27 50.38976 5.74788 28216 ft 457 kts 176°
2026-04-21 17:27 50.35811 5.75387 28497 ft 460 kts 176°
2026-04-21 17:28 50.32624 5.75993 28774 ft 463 kts 176°
2026-04-21 17:28 50.29420 5.76604 29036 ft 466 kts 176°
2026-04-21 17:28 50.26194 5.77241 29289 ft 469 kts 174°
2026-04-21 17:28 50.22994 5.78395 29549 ft 475 kts 167°
2026-04-21 17:29 50.19806 5.79826 29783 ft 478 kts 167°
2026-04-21 17:29 50.16599 5.81261 29999 ft 481 kts 167°
2026-04-21 17:29 50.13373 5.82698 30222 ft 483 kts 168°
2026-04-21 17:29 50.10129 5.84137 30415 ft 486 kts 168°
2026-04-21 17:30 50.06870 5.85584 30603 ft 488 kts 168°
2026-04-21 17:30 50.03598 5.87037 30786 ft 490 kts 168°
2026-04-21 17:30 50.00318 5.88492 31035 ft 490 kts 168°
2026-04-21 17:30 49.97041 5.89942 31306 ft 490 kts 168°
2026-04-21 17:31 49.93762 5.91382 31575 ft 489 kts 168°
2026-04-21 17:31 49.90490 5.92816 31849 ft 489 kts 168°
2026-04-21 17:31 49.87212 5.94253 32114 ft 489 kts 168°
2026-04-21 17:31 49.83940 5.95690 32389 ft 488 kts 168°
2026-04-21 17:32 49.80672 5.97125 32670 ft 488 kts 168°
2026-04-21 17:32 49.77407 5.98559 32943 ft 487 kts 168°
2026-04-21 17:32 49.74146 5.99987 33217 ft 487 kts 168°
2026-04-21 17:32 49.70891 6.01406 33495 ft 486 kts 168°
2026-04-21 17:33 49.67633 6.02823 33770 ft 486 kts 168°
2026-04-21 17:33 49.64380 6.04237 34059 ft 485 kts 168°
2026-04-21 17:33 49.61133 6.05651 34322 ft 484 kts 168°
2026-04-21 17:33 49.57891 6.07062 34550 ft 484 kts 168°
2026-04-21 17:34 49.54651 6.08466 34779 ft 484 kts 168°
2026-04-21 17:34 49.51414 6.09876 34991 ft 484 kts 166°
2026-04-21 17:34 49.48267 6.11773 35201 ft 488 kts 156°
2026-04-21 17:34 49.45332 6.14427 35400 ft 492 kts 146°
2026-04-21 17:35 49.42640 6.17686 35596 ft 492 kts 142°
2026-04-21 17:35 49.39985 6.21001 35791 ft 492 kts 142°
2026-04-21 17:35 49.37323 6.24308 35990 ft 492 kts 142°
2026-04-21 17:35 49.34664 6.27596 36197 ft 491 kts 142°
2026-04-21 17:36 49.32006 6.30874 36395 ft 490 kts 143°
2026-04-21 17:36 49.29347 6.34147 36588 ft 490 kts 142°
2026-04-21 17:36 49.26695 6.37410 36781 ft 489 kts 142°
2026-04-21 17:36 49.24041 6.40667 36971 ft 488 kts 142°
2026-04-21 17:37 49.21389 6.43914 37137 ft 488 kts 142°
2026-04-21 17:37 49.18738 6.47158 37177 ft 488 kts 142°
2026-04-21 17:37 49.13444 6.53630 37172 ft 488 kts 142°
2026-04-21 17:38 49.08175 6.60049 37174 ft 488 kts 143°
2026-04-21 17:38 49.02795 6.66335 37178 ft 486 kts 150°
2026-04-21 17:39 48.96644 6.70356 37177 ft 480 kts 170°
2026-04-21 17:39 48.90089 6.71304 37165 ft 471 kts 186°
2026-04-21 17:40 48.83530 6.71029 37154 ft 472 kts 185°
2026-04-21 17:40 48.76951 6.70766 37151 ft 474 kts 185°
2026-04-21 17:41 48.70354 6.70510 37141 ft 475 kts 185°
2026-04-21 17:41 48.63746 6.70260 37140 ft 475 kts 185°
2026-04-21 17:42 48.57131 6.70003 37142 ft 475 kts 186°
2026-04-21 17:42 48.50514 6.69739 37143 ft 476 kts 186°
2026-04-21 17:43 48.43891 6.69476 37144 ft 476 kts 186°
2026-04-21 17:43 48.37265 6.69236 37144 ft 477 kts 186°
2026-04-21 17:44 48.30632 6.68987 37137 ft 477 kts 186°
2026-04-21 17:44 48.23999 6.68725 37134 ft 477 kts 186°
2026-04-21 17:45 48.17470 6.67647 37132 ft 470 kts 196°
2026-04-21 17:45 48.11045 6.65859 37127 ft 470 kts 196°
2026-04-21 17:46 48.04618 6.64072 37113 ft 470 kts 196°
2026-04-21 17:46 47.98190 6.62279 37097 ft 470 kts 196°
2026-04-21 17:47 47.91763 6.60490 37086 ft 470 kts 196°
2026-04-21 17:47 47.85329 6.58716 37076 ft 470 kts 196°
2026-04-21 17:48 47.78899 6.56952 37072 ft 470 kts 196°
2026-04-21 17:48 47.72473 6.55196 37075 ft 469 kts 197°
2026-04-21 17:49 47.66049 6.53437 37076 ft 469 kts 197°
2026-04-21 17:49 47.59629 6.51673 37077 ft 469 kts 197°
2026-04-21 17:50 47.53253 6.49924 37093 ft 469 kts 197°
2026-04-21 17:50 47.46838 6.48181 37093 ft 469 kts 197°
2026-04-21 17:51 47.40420 6.46437 37089 ft 469 kts 197°
2026-04-21 17:51 47.34008 6.44700 37086 ft 468 kts 196°
2026-04-21 17:52 47.27594 6.42978 37078 ft 469 kts 196°
2026-04-21 17:52 47.21180 6.41251 37076 ft 468 kts 197°
2026-04-21 17:53 47.14769 6.39530 37073 ft 468 kts 196°
2026-04-21 17:53 47.08362 6.37818 37070 ft 468 kts 197°
2026-04-21 17:54 47.01959 6.36098 37067 ft 468 kts 197°
2026-04-21 17:54 46.95557 6.34385 37067 ft 467 kts 197°
2026-04-21 17:55 46.89160 6.32681 37069 ft 467 kts 197°
2026-04-21 17:55 46.82767 6.30993 37062 ft 467 kts 197°
2026-04-21 17:56 46.76377 6.29300 37056 ft 466 kts 197°
2026-04-21 17:56 46.69994 6.27610 37052 ft 466 kts 197°
2026-04-21 17:57 46.63623 6.25929 37051 ft 465 kts 197°
2026-04-21 17:57 46.57253 6.24261 37045 ft 465 kts 197°
2026-04-21 17:58 46.50935 6.22612 37033 ft 464 kts 197°
2026-04-21 17:58 46.44588 6.20944 37023 ft 463 kts 197°
2026-04-21 17:59 46.38244 6.19282 37018 ft 463 kts 197°
2026-04-21 17:59 46.31902 6.17633 37010 ft 463 kts 197°
2026-04-21 18:00 46.25572 6.15991 37012 ft 462 kts 197°
2026-04-21 18:00 46.19239 6.14350 37005 ft 462 kts 197°
2026-04-21 18:01 46.12917 6.12714 37010 ft 462 kts 197°
2026-04-21 18:01 46.06592 6.11085 36994 ft 462 kts 197°
2026-04-21 18:02 46.00277 6.09452 36983 ft 461 kts 197°
2026-04-21 18:02 45.94009 6.07840 36979 ft 460 kts 197°
2026-04-21 18:03 45.87698 6.06228 36980 ft 460 kts 197°
2026-04-21 18:03 45.81397 6.04620 36980 ft 460 kts 197°
2026-04-21 18:04 45.76121 6.03273 36956 ft 460 kts 197°
2026-04-21 18:04 45.69822 6.01685 36953 ft 460 kts 197°
2026-04-21 18:05 45.63531 6.00096 36951 ft 458 kts 197°
2026-04-21 18:05 45.57300 5.98511 36951 ft 458 kts 197°
2026-04-21 18:06 45.51025 5.96909 36951 ft 458 kts 197°
2026-04-21 18:06 45.44770 5.95273 36961 ft 456 kts 199°
2026-04-21 18:07 45.38596 5.93340 36953 ft 453 kts 200°
2026-04-21 18:07 45.32450 5.91304 36955 ft 453 kts 200°
2026-04-21 18:08 45.26293 5.89342 36971 ft 454 kts 199°
2026-04-21 18:08 45.20124 5.87447 36981 ft 453 kts 199°
2026-04-21 18:09 45.13970 5.85553 36984 ft 452 kts 199°
2026-04-21 18:09 45.07821 5.83656 36981 ft 451 kts 199°
2026-04-21 18:10 45.01686 5.81758 36977 ft 451 kts 199°
2026-04-21 18:10 44.95549 5.79871 36975 ft 451 kts 199°
2026-04-21 18:11 44.89416 5.77998 36972 ft 450 kts 199°
2026-04-21 18:11 44.83296 5.76119 36965 ft 450 kts 199°
2026-04-21 18:12 44.77182 5.74240 36952 ft 450 kts 199°
2026-04-21 18:12 44.71071 5.72369 36947 ft 449 kts 199°
2026-04-21 18:13 44.64959 5.70510 36934 ft 449 kts 199°
2026-04-21 18:13 44.58849 5.68654 36930 ft 449 kts 199°
2026-04-21 18:14 44.49674 5.65873 36924 ft 450 kts 199°
2026-04-21 18:15 44.43561 5.64025 36918 ft 450 kts 199°
2026-04-21 18:15 44.37529 5.62052 36913 ft 444 kts 205°
2026-04-21 18:16 44.31808 5.58965 36906 ft 440 kts 208°
2026-04-21 18:16 44.26104 5.55827 36904 ft 441 kts 208°
2026-04-21 18:17 44.20401 5.52697 36902 ft 440 kts 208°
2026-04-21 18:17 44.14694 5.49586 36903 ft 441 kts 207°
2026-04-21 18:18 44.08982 5.46491 36905 ft 440 kts 207°
2026-04-21 18:18 44.03275 5.43395 36909 ft 440 kts 207°
2026-04-21 18:19 43.97576 5.40315 36907 ft 439 kts 207°
2026-04-21 18:19 43.91884 5.37234 36909 ft 439 kts 207°
2026-04-21 18:20 43.86205 5.34154 36907 ft 438 kts 207°
2026-04-21 18:20 43.80529 5.31086 36908 ft 438 kts 207°
2026-04-21 18:21 43.74856 5.28033 36903 ft 437 kts 207°
2026-04-21 18:21 43.69185 5.24993 36902 ft 437 kts 207°
2026-04-21 18:22 43.63523 5.21955 36898 ft 436 kts 207°
2026-04-21 18:22 43.57899 5.18938 36897 ft 436 kts 207°
2026-04-21 18:23 43.52236 5.15924 36900 ft 436 kts 207°
2026-04-21 18:23 43.46570 5.12922 36898 ft 436 kts 207°
2026-04-21 18:24 43.40909 5.09903 36901 ft 436 kts 208°
2026-04-21 18:24 43.35699 5.05947 36899 ft 425 kts 220°
2026-04-21 18:25 43.30832 5.01345 36899 ft 425 kts 220°
2026-04-21 18:25 43.25968 4.96741 36906 ft 425 kts 220°
2026-04-21 18:26 43.21092 4.92160 36911 ft 425 kts 220°
2026-04-21 18:26 43.16213 4.87597 36914 ft 425 kts 220°
2026-04-21 18:27 43.11337 4.83035 36914 ft 424 kts 220°
2026-04-21 18:27 43.06458 4.78484 36919 ft 424 kts 219°
2026-04-21 18:28 43.01314 4.74418 36915 ft 428 kts 214°
2026-04-21 18:28 42.96106 4.70474 36915 ft 428 kts 214°
2026-04-21 18:29 42.90894 4.66538 36914 ft 428 kts 214°
2026-04-21 18:29 42.85682 4.62594 36914 ft 428 kts 214°
2026-04-21 18:30 42.80506 4.58684 36916 ft 429 kts 214°
2026-04-21 18:30 42.75285 4.54759 36918 ft 429 kts 214°
2026-04-21 18:31 42.70059 4.50841 36926 ft 429 kts 214°
2026-04-21 18:31 42.64833 4.46927 36923 ft 429 kts 214°
2026-04-21 18:32 42.59610 4.43006 36918 ft 429 kts 213°
2026-04-21 18:32 42.54383 4.39092 36918 ft 429 kts 213°
2026-04-21 18:33 42.49147 4.35189 36915 ft 429 kts 213°
2026-04-21 18:33 42.43907 4.31295 36926 ft 430 kts 213°
2026-04-21 18:34 42.38665 4.27400 36915 ft 430 kts 213°
2026-04-21 18:34 42.33425 4.23508 36920 ft 430 kts 213°
2026-04-21 18:35 42.29064 4.20287 36922 ft 430 kts 213°
2026-04-21 18:35 42.22928 4.15758 36922 ft 430 kts 213°
2026-04-21 18:36 42.17683 4.11893 36921 ft 430 kts 213°
2026-04-21 18:36 42.12437 4.08035 36926 ft 429 kts 213°
2026-04-21 18:37 42.07192 4.04190 36929 ft 429 kts 213°
2026-04-21 18:37 42.01948 4.00349 36925 ft 429 kts 213°
2026-04-21 18:38 41.96704 3.96519 36927 ft 429 kts 213°
2026-04-21 18:38 41.91255 3.93215 36926 ft 435 kts 201°
2026-04-21 18:39 41.85427 3.90989 36928 ft 436 kts 200°
2026-04-21 18:39 41.79580 3.88837 36927 ft 436 kts 200°
2026-04-21 18:40 41.73740 3.86671 36933 ft 435 kts 200°
2026-04-21 18:40 41.68893 3.84863 36932 ft 435 kts 200°
2026-04-21 18:41 41.62071 3.82325 36930 ft 435 kts 200°
2026-04-21 18:41 41.56238 3.80167 36931 ft 435 kts 200°
2026-04-21 18:42 41.50409 3.78004 36931 ft 435 kts 200°
2026-04-21 18:42 41.44613 3.75852 36928 ft 435 kts 200°
2026-04-21 18:43 41.38784 3.73702 36928 ft 435 kts 200°
2026-04-21 18:43 41.32949 3.71560 36926 ft 435 kts 200°
2026-04-21 18:44 41.27111 3.69417 36926 ft 435 kts 200°
2026-04-21 18:44 41.21279 3.67267 36933 ft 435 kts 200°
2026-04-21 18:45 41.15443 3.65122 36931 ft 435 kts 200°
2026-04-21 18:45 41.09641 3.63003 36930 ft 435 kts 200°
2026-04-21 18:46 41.03805 3.60873 36929 ft 435 kts 199°
2026-04-21 18:46 40.97965 3.58744 36928 ft 436 kts 199°
2026-04-21 18:46 40.95037 3.57674 36481 ft 438 kts 199°
2026-04-21 18:47 40.92082 3.56593 34911 ft 445 kts 199°
2026-04-21 18:47 40.89074 3.55493 33240 ft 452 kts 199°
2026-04-21 18:47 40.86030 3.54388 31951 ft 450 kts 199°
2026-04-21 18:47 40.83082 3.53333 31698 ft 429 kts 199°
2026-04-21 18:48 40.80227 3.52316 31250 ft 423 kts 199°
2026-04-21 18:48 40.77398 3.51301 30677 ft 420 kts 199°
2026-04-21 18:48 40.74586 3.50283 30121 ft 418 kts 199°
2026-04-21 18:48 40.71789 3.49265 29509 ft 415 kts 199°
2026-04-21 18:49 40.69017 3.48258 28972 ft 411 kts 199°
2026-04-21 18:49 40.66270 3.47264 28432 ft 407 kts 199°
2026-04-21 18:49 40.64465 3.46612 28070 ft 405 kts 199°
2026-04-21 18:49 40.60851 3.45311 27369 ft 400 kts 199°
2026-04-21 18:50 40.58173 3.44346 26844 ft 398 kts 199°
2026-04-21 18:50 40.55514 3.43391 26338 ft 395 kts 199°
2026-04-21 18:50 40.52874 3.42443 25835 ft 392 kts 199°
2026-04-21 18:50 40.50250 3.41500 25352 ft 390 kts 199°
2026-04-21 18:51 40.47639 3.40565 24874 ft 387 kts 198°
2026-04-21 18:51 40.45029 3.39702 24395 ft 387 kts 193°
2026-04-21 18:51 40.42348 3.39358 23920 ft 389 kts 183°
2026-04-21 18:51 40.39644 3.39493 23431 ft 388 kts 180°
2026-04-21 18:52 40.36952 3.39653 22924 ft 385 kts 181°
2026-04-21 18:52 40.34286 3.39805 22459 ft 382 kts 181°
2026-04-21 18:52 40.31643 3.39954 21995 ft 378 kts 181°
2026-04-21 18:52 40.29908 3.40051 21689 ft 377 kts 181°
2026-04-21 18:53 40.27299 3.40197 21215 ft 374 kts 181°
2026-04-21 18:53 40.24707 3.40323 20657 ft 372 kts 184°
2026-04-21 18:53 40.22153 3.39794 19670 ft 370 kts 202°
2026-04-21 18:53 40.19808 3.38463 18744 ft 366 kts 208°
2026-04-21 18:54 40.17505 3.37058 17779 ft 364 kts 208°
2026-04-21 18:54 40.15217 3.35655 16771 ft 362 kts 208°
2026-04-21 18:54 40.12944 3.34263 15804 ft 360 kts 207°
2026-04-21 18:54 40.10683 3.32885 14871 ft 357 kts 207°
2026-04-21 18:55 40.08439 3.31519 13967 ft 354 kts 207°
2026-04-21 18:55 40.06215 3.30162 13008 ft 351 kts 207°
2026-04-21 18:55 40.04019 3.28820 12180 ft 344 kts 206°
2026-04-21 18:55 40.01897 3.27525 11710 ft 328 kts 206°
2026-04-21 18:56 39.99873 3.26292 11275 ft 317 kts 206°
2026-04-21 18:56 39.97878 3.25077 10833 ft 316 kts 206°
2026-04-21 18:56 39.95887 3.23865 10399 ft 315 kts 206°
2026-04-21 18:56 39.93927 3.22674 10243 ft 305 kts 206°
2026-04-21 18:57 39.92033 3.21527 10045 ft 297 kts 206°
2026-04-21 18:57 39.90176 3.20404 9953 ft 293 kts 206°
2026-04-21 18:57 39.88322 3.19283 9648 ft 295 kts 206°
2026-04-21 18:57 39.86463 3.18159 9248 ft 293 kts 205°
2026-04-21 18:58 39.84617 3.17044 8851 ft 292 kts 205°
2026-04-21 18:58 39.82781 3.15937 8454 ft 290 kts 205°
2026-04-21 18:58 39.80957 3.14835 8053 ft 288 kts 205°
2026-04-21 18:58 39.79148 3.13741 7668 ft 286 kts 205°
2026-04-21 18:59 39.77350 3.12657 7280 ft 284 kts 205°
2026-04-21 18:59 39.75565 3.11581 6890 ft 282 kts 205°
2026-04-21 18:59 39.73794 3.10515 6519 ft 279 kts 205°
2026-04-21 18:59 39.72040 3.09449 6124 ft 277 kts 207°
2026-04-21 19:00 39.70536 3.07944 5547 ft 282 kts 230°
2026-04-21 19:00 39.69465 3.05819 5129 ft 280 kts 238°
2026-04-21 19:00 39.68480 3.03695 4764 ft 267 kts 238°
2026-04-21 19:00 39.67545 3.01691 4418 ft 252 kts 237°
2026-04-21 19:01 39.66658 2.99799 4088 ft 238 kts 237°
2026-04-21 19:01 39.65818 2.98008 3787 ft 226 kts 237°
2026-04-21 19:01 39.65018 2.96303 3498 ft 216 kts 237°
2026-04-21 19:01 39.64245 2.94657 3227 ft 209 kts 237°
2026-04-21 19:02 39.63504 2.93078 2965 ft 201 kts 237°
2026-04-21 19:02 39.62802 2.91582 2725 ft 188 kts 237°
2026-04-21 19:02 39.62141 2.90177 2465 ft 178 kts 237°
2026-04-21 19:02 39.61517 2.88849 2242 ft 166 kts 237°
2026-04-21 19:03 39.60945 2.87633 2034 ft 152 kts 237°
2026-04-21 19:03 39.60405 2.86487 1834 ft 147 kts 237°
2026-04-21 19:03 39.59878 2.85368 1650 ft 144 kts 237°
2026-04-21 19:03 39.59356 2.84260 1454 ft 143 kts 237°
2026-04-21 19:04 39.58835 2.83155 1264 ft 143 kts 237°
2026-04-21 19:04 39.58320 2.82062 1073 ft 141 kts 237°
2026-04-21 19:04 39.57810 2.80981 890 ft 140 kts 238°
2026-04-21 19:04 39.57307 2.79914 713 ft 138 kts 239°
2026-04-21 19:05 39.56810 2.78861 524 ft 136 kts 238°
2026-04-21 19:05 39.56317 2.77819 350 ft 135 kts 239°
2026-04-21 19:05 39.55829 2.76779 164 ft 135 kts 239°
2026-04-21 19:05 39.55342 2.75750 34 ft 129 kts 238°
2026-04-21 19:06 39.54952 2.74916 30 ft 84 kts 239°
2026-04-21 19:06 39.54713 2.74409 30 ft 57 kts 238°
2026-04-21 19:06 39.54593 2.74151 30 ft 27 kts 244°
2026-04-21 19:06 39.54553 2.73946 30 ft 18 kts 267°
2026-04-21 19:07 39.54552 2.73811 30 ft 10 kts 269°
2026-04-21 19:07 39.54552 2.73795 30 ft 0 kts 269°
2026-04-21 19:07 39.54552 2.73794 30 ft 0 kts 269°
2026-04-21 19:07 39.54551 2.73757 30 ft 10 kts 269°
2026-04-21 19:08 39.54573 2.73668 30 ft 11 kts 310°
2026-04-21 19:08 39.54634 2.73628 30 ft 10 kts
2026-04-21 19:08 39.54698 2.73751 30 ft 20 kts 58°
2026-04-21 19:08 39.54775 2.73914 30 ft 22 kts 58°
2026-04-21 19:09 39.54887 2.73971 30 ft 21 kts 328°
2026-04-21 19:09 39.55017 2.73869 30 ft 23 kts 328°
2026-04-21 19:09 39.55098 2.73804 30 ft 4 kts 316°
2026-04-21 19:09 39.55093 2.73767 30 ft 9 kts 241°
2026-04-21 19:10 39.55061 2.73700 30 ft 7 kts 238°
2026-04-21 19:10 39.55054 2.73684 30 ft 0 kts 238°